This is the latest recevied weather packets stored in our database for station/object KM4LTG. If no packets are shown the sender has not sent any weather packets the latest 10 day(s).
| Time | Temp. | Humidity | Pressure | Rain* | Wind** | Luminosity | Snow |
|---|---|---|---|---|---|---|---|
| 1777501320 | 26.11° C | 76% | 1013.8 hPa | 0 mm | - | - | - |
| 1777501058 | 26.67° C | 76% | 1013.7 hPa | 0 mm | - | - | - |
| 1777500791 | 27.22° C | 74% | 1013.8 hPa | 0 mm | - | - | - |
| 1777500536 | 26.67° C | 76% | 1013.8 hPa | 0 mm | - | - | - |
| 1777499727 | 27.22° C | 74% | 1013.7 hPa | 0 mm | - | - | - |
| 1777498681 | 27.22° C | 71% | 1013.9 hPa | 0 mm | - | - | - |
| 1777497096 | 27.78° C | 72% | 1014 hPa | 0 mm | - | - | - |
| 1777496536 | 27.22° C | 71% | 1014.3 hPa | 0 mm | - | - | - |
| 1777495971 | 27.78° C | 69% | 1014.4 hPa | 0 mm | - | - | - |
| 1777495714 | 27.78° C | 70% | 1014.5 hPa | 0 mm | - | - | - |
| 1777494712 | 27.78° C | 70% | 1014.8 hPa | 0 mm | - | - | - |
| 1777494426 | 27.78° C | 70% | 1014.8 hPa | 0 mm | - | - | - |
| 1777494136 | 28.33° C | 68% | 1014.9 hPa | 0 mm | - | - | - |
| 1777493856 | 28.33° C | 69% | 1015 hPa | 0 mm | - | - | - |
| 1777493581 | 28.33° C | 67% | 1015 hPa | 0 mm | - | - | - |
| 1777493293 | 28.33° C | 68% | 1015.1 hPa | 0 mm | - | - | - |
| 1777493028 | 28.33° C | 69% | 1015.2 hPa | 0 mm | - | - | - |
| 1777492775 | 28.33° C | 67% | 1015.4 hPa | 0 mm | - | - | - |
| 1777491456 | 28.33° C | 67% | 1015.6 hPa | 0 mm | - | - | - |
| 1777491181 | 28.33° C | 67% | 1015.7 hPa | 0 mm | - | - | - |
| 1777490887 | 28.33° C | 67% | 1015.9 hPa | 0 mm | - | - | - |
| 1777490639 | 28.33° C | 67% | 1016 hPa | 0 mm | - | - | - |
| 1777490401 | 28.33° C | 67% | 1016.2 hPa | 0 mm | - | - | - |
| 1777490146 | 28.33° C | 67% | 1016.2 hPa | 0 mm | - | - | - |
| 1777489631 | 28.89° C | 64% | 1016.4 hPa | 0 mm | - | - | - |
* Rain latest hour (hover to see other rain measurements)
** Current wind speed in m/s (hover to see current wind gust speed)